DateTimeUTC,F1_A11,F1_S11,BsB_S11,BsG_S11,BsR_S11,BbsB_S11,BbsG_S11,BbsR_S11,BaB_A11,BaG_A11,BaR_A11,Tu_S11,T_S11,Uu_S11,U_S11,P_S11,T1_A11
2021-11-09T15:00:00Z,00000200,21000000,,,,,,,0000.11,-000.25,0000.26,18.8,25.6,,00.0,0639.2,31.0
2021-11-09T15:01:00Z,00000200,21000000,,,,,,,-000.16,0000.30,-000.33,18.8,25.6,,00.0,0639.2,31.0
2021-11-09T15:02:00Z,00000200,21000000,,,,,,,0000.07,-000.07,0000.16,18.9,25.6,,00.0,0639.2,31.0
2021-11-09T15:03:00Z,00000200,61000000,,,,,,,0000.29,0000.14,0000.08,18.9,25.6,,00.0,0639.2,31.0
2021-11-09T15:04:00Z,00000200,41000000,0001.05,-000.00,0000.16,0000.28,0000.25,0000.27,-000.37,-000.50,-000.14,19.3,25.6,,00.0,0640.1,31.0
2021-11-09T15:05:00Z,00000200,01000000,0000.28,0000.07,0000.24,0000.41,0000.28,0000.06,0000.05,-000.05,-000.35,19.3,25.6,,00.0,0640.2,31.0
2021-11-09T15:06:00Z,00000200,01000000,0000.46,-000.17,-000.01,0000.48,0000.01,0000.20,-000.25,0000.16,0000.08,19.2,25.6,,00.0,0640.1,31.0
2021-11-09T15:07:00Z,00000200,01000000,0000.85,0000.08,0000.07,0000.65,0000.13,0000.01,0000.15,-000.01,-000.01,19.2,25.5,,00.0,0640.1,31.0
2021-11-09T15:08:00Z,00000200,01000000,0000.06,0000.22,-000.33,0000.63,0000.21,0000.22,0000.02,-000.08,0000.22,19.1,25.5,,00.0,0640.1,31.0
2021-11-09T15:09:00Z,00000200,01000000,-000.14,-000.06,-000.04,0000.65,0000.18,0000.02,-000.12,0000.00,-000.31,19.0,25.5,,00.0,0640.1,30.9
2021-11-09T15:10:00Z,00000200,01000000,0000.02,0000.05,-000.04,0000.74,0000.27,0000.09,-000.10,0000.26,0000.06,19.0,25.4,,00.0,0640.1,31.0
2021-11-09T15:11:00Z,00000200,01000000,-000.18,0000.35,0000.30,0000.39,-000.22,0000.19,0000.29,-000.77,-000.48,19.0,25.4,,00.0,0640.1,31.0
2021-11-09T15:12:00Z,00000200,01000000,-000.63,-000.30,0000.22,0000.39,0000.37,0000.17,-000.04,0000.22,0000.37,19.0,25.4,,00.0,0640.1,31.0
2021-11-09T15:13:00Z,00000200,01000000,0000.72,-000.06,0000.20,0000.29,0000.07,0000.13,-000.19,-000.11,-000.14,19.1,25.5,,00.0,0640.1,31.0
2021-11-09T15:14:00Z,00000200,01000000,0000.94,-000.02,0000.06,-000.15,0000.02,0000.15,0000.05,0000.67,0000.88,19.2,25.5,,00.0,0640.1,31.0
2021-11-09T15:15:00Z,00000200,01000000,0000.40,0000.17,0000.31,0000.63,-000.03,-000.17,0000.08,-000.14,-000.50,19.2,25.5,,00.0,0640.1,31.0
2021-11-09T15:16:00Z,00000200,01000000,0000.37,-000.20,-000.11,0000.72,-000.05,-000.01,0000.19,-000.17,0000.04,19.3,25.5,,00.0,0640.1,31.0
2021-11-09T15:17:00Z,00000200,01000000,-000.13,0000.32,0000.10,0000.41,0000.19,-000.03,-000.27,0000.06,-000.16,19.4,25.6,,00.0,0640.2,31.0
2021-11-09T15:18:00Z,00000200,01000000,-000.27,0000.28,-000.27,0000.40,-000.20,0000.02,0000.09,0000.01,-000.28,19.4,25.6,,00.0,0640.1,31.0
2021-11-09T15:19:00Z,00000200,01000000,0000.48,0000.39,0000.05,0000.47,0000.31,0000.28,-000.02,-000.07,0000.27,19.3,25.6,,00.0,0640.1,31.0
2021-11-09T15:20:00Z,00000200,01000000,0000.33,-000.13,0000.10,0001.58,0000.34,-000.05,-000.21,-000.08,-000.29,19.2,25.6,,00.0,0640.1,31.0
2021-11-09T15:21:00Z,00000200,01000000,0000.33,0000.22,-000.10,0001.38,0000.23,-000.00,0000.09,0000.31,0000.40,19.1,25.5,,00.0,0640.1,31.0
2021-11-09T15:22:00Z,00000200,01000000,0000.15,0000.15,0000.08,0000.14,0000.04,-000.07,0000.33,-000.38,-000.19,19.1,25.5,,00.0,0640.1,31.0
2021-11-09T15:23:00Z,00000200,01000000,0000.10,-000.13,0000.30,0000.66,0000.14,0000.37,-000.47,0000.03,0000.06,19.0,25.4,,00.0,0640.1,30.9
2021-11-09T15:24:00Z,00000200,01000000,0000.13,-000.02,0000.06,0000.29,0000.05,0000.08,-000.31,-000.35,-000.88,18.9,25.4,,00.0,0640.1,30.9
2021-11-09T15:25:00Z,00000200,01000000,0000.15,0000.11,0000.33,0000.32,0000.32,0000.04,0000.31,0000.34,0000.49,18.9,25.4,,00.0,0640.1,30.9
2021-11-09T15:26:00Z,00000200,01000000,0000.28,0000.00,-000.39,0000.44,-000.03,-000.18,0000.13,-000.32,0000.17,18.9,25.4,,00.0,0640.1,30.9
2021-11-09T15:27:00Z,00000200,01000000,-000.26,-000.11,-000.22,0000.33,0000.08,-000.16,0000.36,0000.44,-000.06,18.9,25.4,,00.0,0640.1,31.0
2021-11-09T15:28:00Z,00000200,01000000,0000.05,-000.16,0000.18,0001.31,0000.35,0000.39,-000.02,-000.18,0000.12,19.0,25.4,,00.0,0640.1,31.0
2021-11-09T15:29:00Z,00000200,01000000,0000.27,0000.38,-000.45,-000.09,-000.14,-000.09,-000.11,0000.13,0000.21,19.1,25.4,,00.0,0640.1,31.0
2021-11-09T15:30:00Z,00000200,01000000,0000.10,0000.10,0000.03,0000.12,-000.04,0000.19,-000.08,0000.07,-000.21,19.1,25.5,,00.0,0640.1,31.0
2021-11-09T15:31:00Z,00000200,01000000,0000.01,0000.18,0000.07,0000.19,-000.03,0000.38,-000.08,-000.09,-000.10,19.2,25.5,,00.0,0640.1,31.0
2021-11-09T15:32:00Z,00000200,01000000,0000.67,0000.24,0000.10,0001.00,0000.11,0000.03,0000.50,-000.22,0000.19,19.1,25.5,,00.0,0640.1,31.0
2021-11-09T15:33:00Z,00000200,01000000,0000.27,0000.06,0000.06,-000.06,-000.13,0000.19,-000.59,0000.24,0000.09,19.0,25.4,,00.0,0640.1,31.0
2021-11-09T15:34:00Z,00000200,01000000,-000.17,0000.15,0000.03,0000.61,0000.10,0000.17,0000.22,-000.22,-000.41,18.9,25.4,,00.0,0640.1,30.9
2021-11-09T15:35:00Z,00000200,01000000,0000.10,0000.34,0000.10,0000.70,0000.11,-000.32,-000.54,-000.00,0000.11,18.9,25.3,,00.0,0640.1,30.9
2021-11-09T15:36:00Z,00000200,01000000,-000.42,-000.08,-000.35,0000.41,0000.23,0000.51,0000.09,-000.12,-000.52,18.8,25.3,,00.0,0640.1,30.9
2021-11-09T15:37:00Z,00000200,01000000,0000.37,0000.33,0000.20,-000.03,-000.05,0000.03,-000.02,-000.26,0000.60,18.7,25.3,,00.0,0640.1,30.9
2021-11-09T15:38:00Z,00000200,01000000,0001.16,0000.39,0000.11,0000.75,0000.01,0000.18,0000.11,0000.28,-000.33,18.6,25.2,,00.0,0640.1,30.9
2021-11-09T15:39:00Z,00000200,01000000,0000.81,-000.00,-000.01,0000.85,0000.21,-000.04,-000.16,0000.23,0000.29,18.6,25.2,,00.0,0640.0,30.9
2021-11-09T15:40:00Z,00000200,01000000,0000.23,0000.12,0000.04,-000.13,0000.16,0000.21,0000.46,-000.33,-000.03,18.5,25.2,,00.0,0640.1,30.9
2021-11-09T15:41:00Z,00000200,01000000,0000.48,-000.25,0000.09,0000.68,-000.22,-000.34,0000.12,0000.24,-000.27,18.6,25.1,,00.0,0640.1,30.9
2021-11-09T15:42:00Z,00000200,01000000,0000.41,0000.27,0000.24,0000.57,0000.03,0000.23,0000.09,-000.10,0000.05,18.6,25.1,,00.0,0640.1,30.9
2021-11-09T15:43:00Z,00000200,01000000,0000.30,0000.25,-000.09,0000.40,0000.15,0000.17,-000.09,0000.19,0000.50,18.7,25.2,,00.0,0640.1,30.9
2021-11-09T15:44:00Z,00000200,01000000,-000.11,0000.48,0000.09,0000.45,0000.12,0000.18,-000.17,0000.32,-000.27,18.8,25.2,,00.0,0640.1,31.0
2021-11-09T15:45:00Z,00000200,01000000,0000.49,-000.02,-000.00,0000.37,-000.18,0000.28,0000.24,-000.32,0000.12,18.9,25.2,,00.0,0640.1,31.0
2021-11-09T15:46:00Z,00000200,01000000,0000.24,0000.00,0000.02,0000.54,0000.06,-000.09,-000.03,0000.13,-000.02,18.9,25.3,,00.0,0640.1,31.0
2021-11-09T15:47:00Z,00000200,01000000,-000.06,-000.34,0000.05,0000.25,0000.04,0000.13,-000.02,-000.09,-000.03,19.0,25.3,,00.0,0640.1,31.0
2021-11-09T15:48:00Z,00000200,01000000,-000.22,0000.05,-000.28,0000.67,-000.14,-000.10,-000.17,-000.12,-000.20,19.0,25.3,,00.0,0640.1,31.0
2021-11-09T15:49:00Z,00000200,01000000,-000.11,0000.11,0000.01,-000.05,0000.23,0000.05,0000.33,0000.35,0000.25,19.0,25.3,,00.0,0640.1,31.0
2021-11-09T15:50:00Z,00000200,01000000,0000.49,-000.34,-000.12,0000.44,0000.20,0000.18,-000.42,0000.12,-000.01,18.9,25.3,,00.0,0640.0,31.0
2021-11-09T15:51:00Z,00000200,01000000,0000.10,0000.19,-000.39,0000.17,0000.02,-000.11,0000.70,0000.08,-000.07,18.9,25.3,,00.0,0640.0,30.9
2021-11-09T15:52:00Z,00000200,01000000,-000.49,-000.06,0000.28,0000.14,-000.01,-000.05,-000.36,-000.41,0000.01,18.8,25.2,,00.0,0640.0,30.9
2021-11-09T15:53:00Z,00000200,01000000,0000.89,0000.37,0000.40,0000.51,0000.32,0000.45,0000.18,0000.13,0000.37,18.7,25.2,,00.0,0639.9,30.9
2021-11-09T15:54:00Z,00000200,01000000,-000.30,0000.04,0000.60,0000.03,0000.05,0000.05,-000.36,-000.01,-000.42,18.6,25.2,,00.0,0639.9,30.9
2021-11-09T15:55:00Z,00000200,01000000,0000.62,-000.09,0000.49,0000.57,0000.23,0000.34,0000.33,0000.25,0000.44,18.6,25.1,,00.0,0639.9,30.9
2021-11-09T15:56:00Z,00000200,01000000,0000.68,0000.15,-000.13,0000.86,0000.04,0000.11,0000.44,0000.43,0000.01,18.6,25.1,,00.0,0639.9,30.9
2021-11-09T15:57:00Z,00000200,41000000,,,,,,,0000.23,0000.25,0000.36,18.7,25.2,,00.0,0640.0,30.9
2021-11-09T15:58:00Z,00000200,61000000,,,,,,,-000.31,-000.19,-000.06,18.5,25.3,,00.0,0639.0,30.9
2021-11-09T15:59:00Z,00000200,21000000,,,,,,,-000.31,-000.03,-000.04,18.5,25.4,,00.0,0639.0,31.0
